DLH6QW EDDC-LSGS

Flight info

Callsign DLH6QW
Flight time N/A
Altitude 35000
Route ABKIS4E/04 ABKIS Z715 PEROX Z715 ANELA N869 TEDGO N851 LOKTA DCT SONOM DCT GODRA DCT GRANA
Aircraft B733/M-V/N

Departure

Time 2026-02-17 11:39
Airport Dresden Airport (EDDC)

Arrival

Time N/A
Airport Sion Airport (LSGS)
Time Latitude Longitude Altitude Speed Heading
2026-02-17 11:16 51.12591 13.76361 754 ft 0 kts 131°
2026-02-17 11:28 51.12597 13.76351 753 ft 2 kts 131°
2026-02-17 11:28 51.12606 13.76333 753 ft 2 kts 131°
2026-02-17 11:28 51.12617 13.76314 752 ft 2 kts 131°
2026-02-17 11:28 51.12626 13.76296 752 ft 2 kts 131°
2026-02-17 11:29 51.12636 13.76279 751 ft 2 kts 133°
2026-02-17 11:29 51.12648 13.76264 751 ft 2 kts 154°
2026-02-17 11:32 51.12657 13.76259 751 ft 2 kts 164°
2026-02-17 11:32 51.12672 13.76255 750 ft 2 kts 181°
2026-02-17 11:32 51.12687 13.76258 750 ft 2 kts 198°
2026-02-17 11:33 51.12700 13.76267 750 ft 2 kts 214°
2026-02-17 11:33 51.12706 13.76275 750 ft 1 kts 224°
2026-02-17 11:33 51.12709 13.76279 750 ft 0 kts 222°
2026-02-17 11:34 51.12709 13.76278 750 ft 0 kts 222°
2026-02-17 11:34 51.12696 13.76261 750 ft 4 kts 220°
2026-02-17 11:35 51.12569 13.76085 752 ft 19 kts 220°
2026-02-17 11:35 51.12452 13.75925 753 ft 22 kts 221°
2026-02-17 11:35 51.12376 13.75805 751 ft 13 kts 252°
2026-02-17 11:35 51.12396 13.75658 748 ft 9 kts 293°
2026-02-17 11:36 51.12402 13.75635 748 ft 0 kts 292°
2026-02-17 11:36 51.12410 13.75606 747 ft 5 kts 293°
2026-02-17 11:37 51.12449 13.75528 745 ft 12 kts 310°
2026-02-17 11:37 51.12523 13.75545 746 ft 6 kts 42°
2026-02-17 11:37 51.12524 13.75547 746 ft 0 kts 43°
2026-02-17 11:38 51.12545 13.75578 747 ft 22 kts 42°
2026-02-17 11:38 51.12851 13.75997 744 ft 93 kts 41°
2026-02-17 11:39 51.14383 13.78078 1079 ft 169 kts 37°
2026-02-17 11:39 51.15288 13.79334 1517 ft 181 kts 38°
2026-02-17 11:39 51.16295 13.80745 1668 ft 204 kts 39°
2026-02-17 11:39 51.17424 13.82319 1870 ft 226 kts 38°
2026-02-17 11:40 51.18621 13.83980 2400 ft 237 kts 37°
2026-02-17 11:40 51.19868 13.85893 2846 ft 258 kts 52°
2026-02-17 11:40 51.20477 13.88615 3377 ft 276 kts 87°
2026-02-17 11:40 51.20043 13.91586 4125 ft 281 kts 119°
2026-02-17 11:41 51.18906 13.94091 4902 ft 283 kts 135°
2026-02-17 11:41 51.17544 13.96352 5632 ft 287 kts 135°
2026-02-17 11:41 51.16151 13.98650 6359 ft 291 kts 135°
2026-02-17 11:41 51.14763 14.00942 7103 ft 292 kts 135°
2026-02-17 11:42 51.13344 14.03282 7755 ft 297 kts 135°
2026-02-17 11:42 51.11893 14.05680 8456 ft 300 kts 135°
2026-02-17 11:42 51.10458 14.08031 9165 ft 300 kts 136°
2026-02-17 11:43 51.06787 14.11077 9989 ft 313 kts 176°
2026-02-17 11:43 51.04577 14.10937 10047 ft 326 kts 197°
2026-02-17 11:43 51.02477 14.09541 10314 ft 331 kts 217°
2026-02-17 11:43 51.00748 14.07168 10820 ft 332 kts 228°
2026-02-17 11:44 50.99095 14.04609 11429 ft 335 kts 227°
2026-02-17 11:44 50.97406 14.02017 12054 ft 337 kts 227°
2026-02-17 11:44 50.95723 13.99441 12645 ft 340 kts 227°
2026-02-17 11:44 50.94025 13.96849 13223 ft 343 kts 227°
2026-02-17 11:45 50.92296 13.94218 13813 ft 346 kts 227°
2026-02-17 11:45 50.90561 13.91568 14331 ft 351 kts 227°
2026-02-17 11:45 50.88805 13.88905 14855 ft 354 kts 227°
2026-02-17 11:45 50.87011 13.86201 15432 ft 356 kts 227°
2026-02-17 11:46 50.85222 13.83499 16016 ft 358 kts 227°
2026-02-17 11:46 50.83431 13.80796 16560 ft 360 kts 227°
2026-02-17 11:46 50.81611 13.78042 17097 ft 362 kts 227°
2026-02-17 11:47 50.78608 13.71807 18102 ft 358 kts 252°
2026-02-17 11:47 50.77761 13.68131 18601 ft 360 kts 253°
2026-02-17 11:47 50.76911 13.64412 19085 ft 364 kts 252°
2026-02-17 11:47 50.76041 13.60670 19533 ft 368 kts 252°
2026-02-17 11:48 50.75148 13.56853 20076 ft 369 kts 253°
2026-02-17 11:48 50.74266 13.53092 20539 ft 372 kts 253°
2026-02-17 11:48 50.73358 13.49241 21000 ft 375 kts 253°
2026-02-17 11:48 50.72442 13.45357 21459 ft 378 kts 253°
2026-02-17 11:49 50.71529 13.41500 21929 ft 381 kts 253°
2026-02-17 11:49 50.70602 13.37586 22363 ft 384 kts 253°
2026-02-17 11:49 50.69658 13.33614 22770 ft 388 kts 252°
2026-02-17 11:49 50.68708 13.29610 23184 ft 391 kts 253°
2026-02-17 11:50 50.67766 13.25652 23680 ft 393 kts 252°
2026-02-17 11:50 50.66799 13.21604 24083 ft 396 kts 253°
2026-02-17 11:50 50.65823 13.17524 24567 ft 396 kts 253°
2026-02-17 11:51 50.63867 13.09364 25293 ft 405 kts 253°
2026-02-17 11:51 50.62844 13.05246 25757 ft 406 kts 250°
2026-02-17 11:51 50.61565 13.01268 26140 ft 411 kts 247°
2026-02-17 11:51 50.60235 12.97302 26546 ft 412 kts 247°
2026-02-17 11:52 50.58895 12.93265 26880 ft 416 kts 247°
2026-02-17 11:52 50.57568 12.89241 27200 ft 418 kts 248°
2026-02-17 11:52 50.56242 12.85216 27584 ft 419 kts 247°
2026-02-17 11:52 50.54882 12.81087 27876 ft 422 kts 247°
2026-02-17 11:53 50.53531 12.76985 28176 ft 425 kts 247°
2026-02-17 11:53 50.52174 12.72878 28541 ft 425 kts 247°
2026-02-17 11:53 50.50811 12.68760 29009 ft 422 kts 248°
2026-02-17 11:53 50.49469 12.64711 29492 ft 418 kts 248°
2026-02-17 11:54 50.48141 12.60706 29937 ft 415 kts 248°
2026-02-17 11:54 50.46824 12.56741 30313 ft 414 kts 249°
2026-02-17 11:54 50.45491 12.52732 30644 ft 414 kts 249°
2026-02-17 11:55 50.42812 12.44701 31257 ft 414 kts 249°
2026-02-17 11:55 50.41488 12.40740 31546 ft 413 kts 249°
2026-02-17 11:55 50.40149 12.36742 31795 ft 413 kts 249°
2026-02-17 11:55 50.38805 12.32730 32012 ft 414 kts 248°
2026-02-17 11:56 50.37463 12.28725 32234 ft 414 kts 249°
2026-02-17 11:56 50.36122 12.24733 32493 ft 414 kts 248°
2026-02-17 11:56 50.34783 12.20765 32735 ft 414 kts 248°
2026-02-17 11:56 50.33242 12.16935 32953 ft 420 kts 242°
2026-02-17 11:57 50.31579 12.13215 33171 ft 420 kts 242°
2026-02-17 11:57 50.29915 12.09485 33392 ft 420 kts 242°
2026-02-17 11:57 50.28250 12.05720 33601 ft 420 kts 242°
2026-02-17 11:57 50.26590 12.01945 33795 ft 419 kts 243°
2026-02-17 11:58 50.25048 11.98143 33997 ft 417 kts 245°
2026-02-17 11:58 50.23520 11.94226 34227 ft 417 kts 246°
2026-02-17 11:58 50.22010 11.90361 34495 ft 417 kts 246°
2026-02-17 11:59 50.18963 11.82648 34751 ft 423 kts 243°
2026-02-17 11:59 50.14998 11.75716 34736 ft 434 kts 233°
2026-02-17 12:00 50.10856 11.68957 34738 ft 432 kts 233°
2026-02-17 12:00 50.06698 11.62107 34733 ft 434 kts 232°
2026-02-17 12:01 50.02455 11.55449 34711 ft 434 kts 232°
2026-02-17 12:01 49.98218 11.48813 34759 ft 434 kts 233°
2026-02-17 12:02 49.93990 11.42200 34779 ft 431 kts 234°
2026-02-17 12:02 49.89264 11.36321 34748 ft 443 kts 224°
2026-02-17 12:03 49.81742 11.27958 34774 ft 444 kts 224°
2026-02-17 12:03 49.79861 11.25835 34768 ft 444 kts 224°